AIC5RY VOHS-VABB

Flight info

Callsign AIC5RY
Flight time N/A
Altitude 36000
Route TAMIV5 APUSU W18 OPAKA EMRAK2A
Aircraft A21N/M-SDE3FGHIRWY/LB1

Departure

Time 2026-05-05 10:30
Airport Rajiv Gandhi International Airport (VOHS)

Arrival

Time N/A
Airport Chhatrapati Shivaji Maharaj International Airport (VABB)
Time Latitude Longitude Altitude Speed Heading
2026-05-05 09:56 17.23436 78.43368 2009 ft 0 kts 360°
2026-05-05 10:13 17.23422 78.43368 2010 ft 2 kts 360°
2026-05-05 10:13 17.23407 78.43368 2011 ft 2 kts
2026-05-05 10:13 17.23392 78.43368 2012 ft 2 kts 360°
2026-05-05 10:13 17.23377 78.43366 2013 ft 2 kts 17°
2026-05-05 10:14 17.23363 78.43360 2013 ft 2 kts 32°
2026-05-05 10:14 17.23352 78.43350 2013 ft 2 kts 48°
2026-05-05 10:14 17.23343 78.43338 2014 ft 2 kts 64°
2026-05-05 10:14 17.23338 78.43323 2014 ft 2 kts 80°
2026-05-05 10:15 17.23337 78.43314 2014 ft 1 kts 89°
2026-05-05 10:15 17.23337 78.43309 2014 ft 0 kts 90°
2026-05-05 10:19 17.23337 78.43312 2014 ft 1 kts 90°
2026-05-05 10:19 17.23337 78.43333 2014 ft 4 kts 89°
2026-05-05 10:19 17.23338 78.43371 2013 ft 6 kts 88°
2026-05-05 10:19 17.23339 78.43423 2013 ft 8 kts 89°
2026-05-05 10:20 17.23340 78.43490 2012 ft 9 kts 89°
2026-05-05 10:20 17.23341 78.43567 2011 ft 11 kts 89°
2026-05-05 10:20 17.23341 78.43644 2014 ft 8 kts 89°
2026-05-05 10:20 17.23330 78.43677 2017 ft 1 kts 127°
2026-05-05 10:21 17.23329 78.43679 2017 ft 2 kts 131°
2026-05-05 10:21 17.23295 78.43698 2021 ft 8 kts 167°
2026-05-05 10:21 17.23259 78.43701 2022 ft 0 kts 178°
2026-05-05 10:21 17.23254 78.43701 2022 ft 0 kts 178°
2026-05-05 10:22 17.23247 78.43701 2022 ft 1 kts 178°
2026-05-05 10:22 17.23238 78.43702 2022 ft 1 kts 178°
2026-05-05 10:22 17.23227 78.43702 2023 ft 1 kts 178°
2026-05-05 10:22 17.23222 78.43702 2023 ft 0 kts 178°
2026-05-05 10:23 17.23221 78.43702 2023 ft 0 kts 178°
2026-05-05 10:26 17.23220 78.43702 2023 ft 0 kts 178°
2026-05-05 10:26 17.23196 78.43702 2024 ft 7 kts 181°
2026-05-05 10:27 17.23119 78.43720 2027 ft 15 kts 137°
2026-05-05 10:27 17.23092 78.43854 2033 ft 22 kts 91°
2026-05-05 10:27 17.23093 78.44045 2039 ft 29 kts 88°
2026-05-05 10:27 17.23092 78.44238 2045 ft 14 kts 106°
2026-05-05 10:28 17.23012 78.44293 2042 ft 16 kts 174°
2026-05-05 10:28 17.22933 78.44288 2038 ft 0 kts 189°
2026-05-05 10:28 17.22930 78.44287 2038 ft 2 kts 191°
2026-05-05 10:28 17.22905 78.44271 2038 ft 6 kts 221°
2026-05-05 10:29 17.22896 78.44260 2038 ft 1 kts 242°
2026-05-05 10:29 17.22896 78.44245 2038 ft 0 kts 271°
2026-05-05 10:29 17.22896 78.44237 2038 ft 5 kts 271°
2026-05-05 10:29 17.22896 78.43936 2035 ft 78 kts 269°
2026-05-05 10:30 17.22885 78.43129 2004 ft 142 kts 270°
2026-05-05 10:30 17.22870 78.41948 2195 ft 167 kts 271°
2026-05-05 10:30 17.22860 78.40767 2550 ft 162 kts 270°
2026-05-05 10:30 17.22844 78.39562 2668 ft 167 kts 270°
2026-05-05 10:31 17.22827 78.38341 2805 ft 171 kts 270°
2026-05-05 10:31 17.22809 78.37078 2983 ft 173 kts 270°
2026-05-05 10:31 17.22790 78.35831 3166 ft 174 kts 270°
2026-05-05 10:31 17.22771 78.34553 3355 ft 175 kts 270°
2026-05-05 10:32 17.22754 78.33280 3548 ft 176 kts 271°
2026-05-05 10:32 17.22904 78.32008 3692 ft 179 kts 284°
2026-05-05 10:32 17.23247 78.30737 3817 ft 184 kts 288°
2026-05-05 10:32 17.23635 78.29440 3940 ft 190 kts 288°
2026-05-05 10:33 17.24037 78.28105 4036 ft 199 kts 288°
2026-05-05 10:33 17.24474 78.26644 4030 ft 218 kts 288°
2026-05-05 10:33 17.24935 78.25085 4269 ft 231 kts 288°
2026-05-05 10:33 17.25421 78.23428 4518 ft 245 kts 288°
2026-05-05 10:34 17.25932 78.21687 4765 ft 259 kts 288°
2026-05-05 10:34 17.26477 78.19822 5015 ft 273 kts 288°
2026-05-05 10:34 17.27041 78.17886 5374 ft 282 kts 288°
2026-05-05 10:34 17.27611 78.15929 5892 ft 284 kts 288°
2026-05-05 10:35 17.28180 78.13970 6438 ft 285 kts 288°
2026-05-05 10:35 17.28756 78.11988 7000 ft 286 kts 287°
2026-05-05 10:35 17.29333 78.10002 7561 ft 287 kts 288°
2026-05-05 10:35 17.29913 78.08006 8123 ft 289 kts 288°
2026-05-05 10:36 17.30497 78.05991 8686 ft 291 kts 288°
2026-05-05 10:36 17.31082 78.03976 9246 ft 293 kts 288°
2026-05-05 10:36 17.31676 78.01932 9818 ft 295 kts 288°
2026-05-05 10:36 17.32269 77.99885 10371 ft 298 kts 288°
2026-05-05 10:37 17.32888 77.97756 10650 ft 312 kts 288°
2026-05-05 10:37 17.33530 77.95542 10918 ft 326 kts 288°
2026-05-05 10:37 17.34192 77.93258 11386 ft 332 kts 288°
2026-05-05 10:37 17.34868 77.90924 11994 ft 333 kts 288°
2026-05-05 10:38 17.35535 77.88620 12597 ft 335 kts 288°
2026-05-05 10:38 17.36207 77.86292 13186 ft 337 kts 288°
2026-05-05 10:38 17.36892 77.83929 13751 ft 340 kts 287°
2026-05-05 10:38 17.37575 77.81568 14282 ft 342 kts 287°
2026-05-05 10:39 17.38265 77.79179 14808 ft 345 kts 287°
2026-05-05 10:39 17.38954 77.76792 15322 ft 348 kts 287°
2026-05-05 10:39 17.39653 77.74367 15817 ft 350 kts 287°
2026-05-05 10:39 17.40363 77.71899 16302 ft 353 kts 286°
2026-05-05 10:40 17.40748 77.70563 16565 ft 355 kts 286°
2026-05-05 10:40 17.41463 77.68078 17045 ft 357 kts 286°
2026-05-05 10:40 17.42179 77.65588 17488 ft 360 kts 286°
2026-05-05 10:40 17.42906 77.63064 17938 ft 362 kts 286°
2026-05-05 10:41 17.43562 77.60541 18382 ft 363 kts 282°
2026-05-05 10:41 17.44061 77.57976 18807 ft 364 kts 278°
2026-05-05 10:41 17.44424 77.55360 19225 ft 365 kts 277°
2026-05-05 10:41 17.44764 77.52713 19633 ft 366 kts 277°
2026-05-05 10:42 17.45432 77.47440 20388 ft 369 kts 277°
2026-05-05 10:42 17.45774 77.44752 20758 ft 370 kts 276°
2026-05-05 10:42 17.46113 77.42088 21116 ft 371 kts 276°
2026-05-05 10:43 17.46454 77.39410 21459 ft 372 kts 276°
2026-05-05 10:43 17.46793 77.36742 21783 ft 374 kts 276°
2026-05-05 10:43 17.47136 77.34050 22109 ft 375 kts 276°
2026-05-05 10:43 17.47483 77.31315 22454 ft 376 kts 276°
2026-05-05 10:44 17.47826 77.28607 22772 ft 378 kts 276°
2026-05-05 10:44 17.48171 77.25884 23078 ft 380 kts 276°
2026-05-05 10:44 17.48520 77.23116 23381 ft 382 kts 276°
2026-05-05 10:44 17.48867 77.20373 23665 ft 385 kts 276°
2026-05-05 10:45 17.49218 77.17596 23954 ft 386 kts 276°
2026-05-05 10:45 17.49569 77.14820 24234 ft 388 kts 276°
2026-05-05 10:45 17.49925 77.11996 24512 ft 390 kts 276°
2026-05-05 10:45 17.50280 77.09180 24785 ft 392 kts 277°
2026-05-05 10:46 17.50634 77.06369 25056 ft 394 kts 277°
2026-05-05 10:46 17.50992 77.03516 25324 ft 395 kts 277°
2026-05-05 10:46 17.51350 77.00667 25602 ft 397 kts 277°
2026-05-05 10:46 17.51708 76.97807 25856 ft 399 kts 277°
2026-05-05 10:47 17.52072 76.94907 26113 ft 400 kts 277°
2026-05-05 10:47 17.52432 76.92022 26367 ft 402 kts 277°
2026-05-05 10:47 17.52794 76.89125 26609 ft 403 kts 277°
2026-05-05 10:47 17.53157 76.86214 26847 ft 405 kts 277°
2026-05-05 10:48 17.53521 76.83286 27075 ft 407 kts 277°
2026-05-05 10:48 17.53886 76.80353 27315 ft 408 kts 277°
2026-05-05 10:48 17.54256 76.77371 27537 ft 410 kts 277°
2026-05-05 10:48 17.54621 76.74432 27766 ft 412 kts 277°
2026-05-05 10:49 17.55071 76.71472 27972 ft 414 kts 284°
2026-05-05 10:49 17.56193 76.68683 28154 ft 417 kts 300°
2026-05-05 10:49 17.58014 76.66322 28374 ft 420 kts 315°
2026-05-05 10:49 17.60385 76.64542 28582 ft 425 kts 329°
2026-05-05 10:50 17.63022 76.63097 28832 ft 426 kts 330°
2026-05-05 10:50 17.65677 76.61668 29061 ft 427 kts 330°
2026-05-05 10:50 17.68303 76.60255 29288 ft 428 kts 330°
2026-05-05 10:50 17.70966 76.58817 29511 ft 430 kts 330°
2026-05-05 10:51 17.73652 76.57359 29735 ft 431 kts 330°
2026-05-05 10:51 17.76305 76.55917 29932 ft 433 kts 330°
2026-05-05 10:51 17.78972 76.54466 30140 ft 434 kts 330°
2026-05-05 10:51 17.81690 76.52985 30361 ft 435 kts 330°
2026-05-05 10:52 17.84382 76.51516 30581 ft 436 kts 330°
2026-05-05 10:52 17.87066 76.50051 30790 ft 437 kts 330°
2026-05-05 10:52 17.89756 76.48582 30992 ft 438 kts 330°
2026-05-05 10:52 17.92497 76.47083 31214 ft 439 kts 330°
2026-05-05 10:53 17.95180 76.45616 31502 ft 438 kts 330°
2026-05-05 10:53 17.97906 76.44126 31831 ft 436 kts 330°
2026-05-05 10:53 18.00573 76.42672 32148 ft 434 kts 331°
2026-05-05 10:53 18.03276 76.41237 32463 ft 432 kts 332°
2026-05-05 10:54 18.05974 76.39822 32768 ft 432 kts 332°
2026-05-05 10:54 18.08653 76.38419 33043 ft 431 kts 332°
2026-05-05 10:54 18.11346 76.37006 33315 ft 431 kts 332°
2026-05-05 10:54 18.14041 76.35589 33610 ft 430 kts 332°
2026-05-05 10:55 18.16717 76.34180 33903 ft 430 kts 331°
2026-05-05 10:55 18.19392 76.32770 34197 ft 429 kts 331°
2026-05-05 10:55 18.22059 76.31361 34453 ft 429 kts 331°
2026-05-05 10:55 18.24741 76.29945 34658 ft 431 kts 331°
2026-05-05 10:56 18.27414 76.28532 34859 ft 432 kts 331°
2026-05-05 10:56 18.30104 76.27111 35054 ft 433 kts 331°
2026-05-05 10:56 18.32804 76.25684 35234 ft 434 kts 331°
2026-05-05 10:56 18.35538 76.24238 35427 ft 435 kts 331°
2026-05-05 10:57 18.38235 76.22810 35616 ft 436 kts 331°
2026-05-05 10:57 18.40938 76.21380 35767 ft 437 kts 331°
2026-05-05 10:57 18.43659 76.19939 35891 ft 438 kts 331°
2026-05-05 10:58 18.49116 76.17048 35893 ft 438 kts 331°
2026-05-05 10:58 18.54555 76.14165 35897 ft 438 kts 331°
2026-05-05 10:59 18.60001 76.11277 35897 ft 438 kts 331°
2026-05-05 10:59 18.65455 76.08381 35901 ft 438 kts 331°
2026-05-05 11:00 18.70887 76.05495 35905 ft 438 kts 331°
2026-05-05 11:00 18.76358 76.02587 35914 ft 437 kts 331°
2026-05-05 11:01 18.81770 75.99706 35910 ft 437 kts 331°
2026-05-05 11:01 18.87196 75.96816 35902 ft 436 kts 331°
2026-05-05 11:02 18.92629 75.93922 35893 ft 436 kts 331°
2026-05-05 11:02 18.98063 75.91024 35883 ft 437 kts 331°
2026-05-05 11:03 19.03477 75.88133 35878 ft 436 kts 331°
2026-05-05 11:03 19.08920 75.85227 35876 ft 436 kts 331°
2026-05-05 11:04 19.14313 75.82344 35873 ft 435 kts 331°
2026-05-05 11:04 19.19738 75.79440 35870 ft 434 kts 331°
2026-05-05 11:05 19.25114 75.76562 35864 ft 434 kts 330°
2026-05-05 11:05 19.30514 75.73666 35861 ft 434 kts 330°
2026-05-05 11:06 19.32181 75.72772 35859 ft 434 kts 330°
2026-05-05 11:06 19.36961 75.70207 35857 ft 434 kts 330°
2026-05-05 11:07 19.42201 75.67114 35856 ft 431 kts 322°
2026-05-05 11:07 19.46520 75.62775 35858 ft 427 kts 307°
2026-05-05 11:08 19.49535 75.57414 35859 ft 426 kts 292°
2026-05-05 11:08 19.51080 75.51379 35863 ft 425 kts 278°
2026-05-05 11:09 19.51737 75.45160 35867 ft 425 kts 277°
2026-05-05 11:09 19.52350 75.38940 35871 ft 426 kts 277°
2026-05-05 11:10 19.52968 75.32722 35873 ft 426 kts 276°
2026-05-05 11:10 19.53588 75.26505 35870 ft 426 kts 277°
2026-05-05 11:11 19.54212 75.20246 35871 ft 426 kts 277°
2026-05-05 11:11 19.54829 75.14044 35872 ft 426 kts 277°
2026-05-05 11:12 19.55446 75.07825 35875 ft 425 kts 277°
2026-05-05 11:12 19.56062 75.01591 35879 ft 426 kts 277°
2026-05-05 11:13 19.56675 74.95360 35817 ft 425 kts 277°
2026-05-05 11:13 19.56981 74.92236 35174 ft 428 kts 277°
2026-05-05 11:13 19.57290 74.89099 34084 ft 436 kts 277°
2026-05-05 11:13 19.57601 74.85922 33031 ft 441 kts 277°
2026-05-05 11:14 19.57917 74.82695 32080 ft 444 kts 276°
2026-05-05 11:14 19.58233 74.79456 31180 ft 446 kts 276°
2026-05-05 11:14 19.58551 74.76176 30491 ft 443 kts 276°
2026-05-05 11:14 19.58861 74.72980 29998 ft 436 kts 276°
2026-05-05 11:15 19.59166 74.69810 29503 ft 430 kts 276°
2026-05-05 11:15 19.59467 74.66692 29025 ft 424 kts 276°
2026-05-05 11:15 19.59763 74.63620 28562 ft 417 kts 276°
2026-05-05 11:15 19.60054 74.60590 28111 ft 412 kts 276°
2026-05-05 11:16 19.60288 74.57566 27633 ft 407 kts 272°
2026-05-05 11:16 19.60172 74.54591 27133 ft 405 kts 265°
2026-05-05 11:16 19.59685 74.51666 26620 ft 403 kts 258°
2026-05-05 11:16 19.58957 74.48837 26113 ft 401 kts 256°
2026-05-05 11:17 19.58182 74.46002 25603 ft 398 kts 256°
2026-05-05 11:17 19.57418 74.43227 25104 ft 395 kts 256°
2026-05-05 11:17 19.56657 74.40456 24596 ft 393 kts 257°
2026-05-05 11:17 19.55890 74.37657 24096 ft 390 kts 257°
2026-05-05 11:18 19.55147 74.34936 23609 ft 388 kts 257°
2026-05-05 11:18 19.54404 74.32211 23106 ft 386 kts 257°
2026-05-05 11:18 19.53654 74.29466 22612 ft 383 kts 257°
2026-05-05 11:18 19.52919 74.26773 22136 ft 381 kts 257°
2026-05-05 11:19 19.52189 74.24091 21679 ft 379 kts 257°
2026-05-05 11:19 19.51462 74.21421 21218 ft 377 kts 257°
2026-05-05 11:19 19.50745 74.18783 20756 ft 375 kts 257°